Weather History for Leesburg, FL

Change the Weather History Date:

Monday, August 25, 2014

  Actual Average Record
Temperature  
Mean Temperature 84 °F -  
Max Temperature 93 °F 90 °F 97 °F (1989)
Min Temperature 75 °F 71 °F 65 °F (1978)
Cooling Degree Days 19    
Growing Degree Days 34 (Base 50)    
Moisture  
Dew Point 75 °F    
Average Humidity 82    
Maximum Humidity 94    
Minimum Humidity 50    
Precipitation  
Precipitation 0.54 in - - ()
Sea Level Pressure  
Sea Level Pressure 29.87 in    
Wind  
Wind Speed 9 mph (NNE)    
Max Wind Speed 20 mph    
Max Gust Speed 31 mph    
Visibility 8 miles    
Events Rain    
Averages and records for this station are not official NWS values.
T = Trace of Precipitation, MM = Missing Value Source: NWS Daily Summary

Daily Weather History Graph

Daily Weather History Graph

Search for Another Location

Airport:

Trip Planner

Search our weather history database for the weather conditions in past years. The results will help you decide how hot, cold, wet, or windy it might be!

Date:

Astronomy

Aug. 25, 2014 Rise Set
Actual Time 7:01 AM EDT 7:56 PM EDT
Civil Twilight 6:37 AM EDT 8:20 PM EDT
Nautical Twilight 6:08 AM EDT 8:49 PM EDT
Astronomical Twilight 5:39 AM EDT 9:18 PM EDT
Moon 7:01 AM EDT (8/25) 7:52 PM EDT (8/25)
Length of Visible Light 13h 43m
Length of Day
12h 54m
New Moon, 0% of the Moon is Illuminated
Aug 25
New Moon
Sep 2
First Quarter
Sep 8
Full
Sep 15
Last Quarter
Sep 24
New

Hourly Weather History & Observations

Time (EDT) Temp. Heat Index Dew Point Humidity Pressure Visibility Wind Dir Wind Speed Gust Speed Precip Events Conditions
12:04 AM 80.1 °F 85.4 °F 75.9 °F 87% 29.87 in 10.0 mi NNE 5.8 mph - N/A   Scattered Clouds
12:30 AM 80.1 °F 85.4 °F 75.9 °F 87% 29.87 in 10.0 mi North 4.6 mph - N/A   Mostly Cloudy
1:32 AM 79.0 °F - 75.9 °F 90% 29.87 in 10.0 mi NNW 3.5 mph - N/A   Overcast
1:53 AM 79.0 °F - 75.9 °F 90% 29.85 in 10.0 mi NNW 4.6 mph - N/A   Overcast
2:08 AM 79.0 °F - 75.9 °F 90% 29.85 in 10.0 mi NNW 6.9 mph - N/A   Mostly Cloudy
2:24 AM 78.1 °F - 75.9 °F 93% 29.85 in 9.0 mi NNW 5.8 mph - N/A   Scattered Clouds
2:53 AM 78.1 °F - 75.9 °F 93% 29.85 in 10.0 mi North 6.9 mph - N/A   Mostly Cloudy
3:53 AM 78.1 °F - 75.0 °F 90% 29.83 in 10.0 mi North 5.8 mph - N/A   Mostly Cloudy
4:29 AM 77.0 °F - 75.0 °F 94% 29.84 in 10.0 mi North 5.8 mph - N/A   Mostly Cloudy
5:53 AM 77.0 °F - 75.0 °F 94% 29.84 in 9.0 mi North 6.9 mph - N/A   Overcast
6:53 AM 77.0 °F - 75.0 °F 94% 29.85 in 8.0 mi North 5.8 mph - N/A   Overcast
7:07 AM 77.0 °F - 75.0 °F 94% 29.86 in 8.0 mi NNE 5.8 mph - N/A   Overcast
7:53 AM 79.0 °F - 75.9 °F 90% 29.86 in 10.0 mi NNE 10.4 mph - N/A   Overcast
8:01 AM 80.1 °F 85.4 °F 75.9 °F 87% 29.86 in 10.0 mi NNE 10.4 mph - N/A   Overcast
8:53 AM 82.0 °F 89.4 °F 75.9 °F 82% 29.87 in 10.0 mi NNE 10.4 mph - N/A   Partly Cloudy
10:02 AM 84.9 °F 93.3 °F 75.0 °F 72% 29.88 in 10.0 mi ENE 17.3 mph 24.2 mph N/A   Mostly Cloudy
10:53 AM 88.0 °F 93.8 °F 71.1 °F 57% 29.88 in 10.0 mi NE 16.1 mph 25.3 mph N/A   Scattered Clouds
11:53 AM 87.1 °F 96.3 °F 75.0 °F 67% 29.89 in 10.0 mi NE 15.0 mph - N/A   Mostly Cloudy
12:53 PM 91.0 °F 97.6 °F 71.1 °F 52% 29.88 in 10.0 mi ENE 18.4 mph 25.3 mph N/A   Scattered Clouds
1:53 PM 90.0 °F 94.5 °F 69.1 °F 50% 29.87 in 10.0 mi NE 16.1 mph 26.5 mph N/A   Overcast
2:46 PM 82.0 °F 87.4 °F 73.0 °F 74% 29.88 in 2.0 mi ENE 10.4 mph 31.1 mph 0.09 in Rain Light Rain
2:53 PM 84.0 °F 93.7 °F 77.0 °F 79% 29.88 in 10.0 mi ENE 19.6 mph 28.8 mph 0.09 in   Mostly Cloudy
3:53 PM 84.0 °F 93.7 °F 77.0 °F 79% 29.86 in 10.0 mi ENE 6.9 mph - 0.02 in   Mostly Cloudy
4:53 PM 87.1 °F 93.6 °F 72.0 °F 61% 29.86 in 10.0 mi NE 11.5 mph - N/A   Mostly Cloudy
5:53 PM 86.0 °F 93.8 °F 73.9 °F 67% 29.86 in 10.0 mi North 12.7 mph - N/A   Partly Cloudy
6:53 PM 84.9 °F 91.4 °F 73.0 °F 67% 29.87 in 10.0 mi NNE 12.7 mph - N/A   Scattered Clouds
7:32 PM 80.1 °F 84.5 °F 73.9 °F 81% 29.88 in 1.8 mi NNE 15.0 mph 28.8 mph 0.05 in Rain Heavy Rain
7:40 PM 79.0 °F - 75.0 °F 88% 29.88 in 3.0 mi NNE 15.0 mph - 0.06 in Rain Light Rain
7:53 PM 79.0 °F - 75.0 °F 88% 29.89 in 10.0 mi NNE 11.5 mph - 0.06 in   Overcast
8:12 PM 78.1 °F - 75.0 °F 90% 29.90 in 1.8 mi NE 13.8 mph - 0.13 in Rain Heavy Rain
8:21 PM 77.0 °F - 73.9 °F 90% 29.91 in 1.2 mi NNE 18.4 mph 24.2 mph 0.24 in Rain Heavy Rain
8:36 PM 77.0 °F - 73.9 °F 90% 29.90 in 3.0 mi NE 10.4 mph - 0.35 in Rain Light Rain
8:45 PM 77.0 °F - 73.9 °F 90% 29.90 in 4.0 mi NNE 12.7 mph - 0.36 in Rain Light Rain
8:53 PM 77.0 °F - 73.9 °F 90% 29.90 in 3.0 mi NE 8.1 mph 19.6 mph 0.37 in Rain Light Rain
10:05 PM 77.0 °F - 73.9 °F 90% 29.91 in 10.0 mi NNE 13.8 mph - N/A   Scattered Clouds
11:53 PM 75.9 °F - 73.0 °F 91% 29.92 in 10.0 mi North 6.9 mph - N/A   Clear